Terminal Aerodrome Forecast
Issued by NWS

Home | Current Version | Previous Version | Text Only | Print | Product List | Glossary On
Versions: 1 2 3 4 5 6 7 8 9 10 11 12 13 14 15 16 17 18 19 20 21 22 23 24 25 26 27 28 29 30 31 32 33 34 35 36 37 38 39 40 41 42 43 44 45 46 47 48 49 50
000
FTAK31 PANC 291121 CCA
TAFASD
TAF COR
PASD 291121Z 2912/3012 16008G15KT P6SM BKN015 OVC040
     FM292000 15012G20KT 6SM -RA OVC012
     FM300000 15015G25KT 4SM -RA OVC012
     FM300800 18009KT 4SM -RA SCT012 OVC020
      AMD LTD TO CLD VIS AND WIND=

USA.gov is the U.S. government's official web portal to all federal, state and local government web resources and services.